This is the latest recevied weather packets stored in our database for station/object W5GBS-9. If no packets are shown the sender has not sent any weather packets the latest 10 day(s).
| Time | Temp. | Humidity | Pressure | Rain* | Wind** | Luminosity | Snow |
|---|---|---|---|---|---|---|---|
| 1777423180 | 28.89° C | 100% | 1015.5 hPa | 0 mm | - | - | - |
| 1777421740 | 28.89° C | 100% | 1015.6 hPa | 0 mm | - | - | - |
| 1777421017 | 29.44° C | 100% | 1014.6 hPa | 0 mm | - | - | - |
| 1777420296 | 30.56° C | 100% | 1014.5 hPa | 0 mm | - | - | - |
| 1777419576 | 31.11° C | 100% | 1014.3 hPa | 0 mm | - | - | - |
| 1777418855 | 31.67° C | 100% | 1014.4 hPa | 0 mm | - | - | - |
| 1777418134 | 32.22° C | 100% | 1014.2 hPa | 0 mm | - | - | - |
| 1777417413 | 32.78° C | 100% | 1014.6 hPa | 0 mm | - | - | - |
| 1777416693 | 32.78° C | 100% | 1014.7 hPa | 0 mm | - | - | - |
| 1777415972 | 32.78° C | 100% | 1014.6 hPa | 0 mm | - | - | - |
| 1777415251 | 33.33° C | 100% | 1014.8 hPa | 0 mm | - | - | - |
| 1777414532 | 33.33° C | 100% | 1014.7 hPa | 0 mm | - | - | - |
| 1777413810 | 33.33° C | 100% | 1014.6 hPa | 0 mm | - | - | - |
| 1777413090 | 33.33° C | 100% | 1014.8 hPa | 0 mm | - | - | - |
| 1777412369 | 32.78° C | 100% | 1015.2 hPa | 0 mm | - | - | - |
| 1777411648 | 33.33° C | 100% | 1015.3 hPa | 0 mm | - | - | - |
| 1777410927 | 33.33° C | 100% | 1015.5 hPa | 0 mm | - | - | - |
| 1777410208 | 33.33° C | 100% | 1015.6 hPa | 0 mm | - | - | - |
| 1777409487 | 33.89° C | 100% | 1016 hPa | 0 mm | - | - | - |
| 1777408768 | 33.33° C | 100% | 1016.1 hPa | 0 mm | - | - | - |
| 1777408044 | 32.78° C | 100% | 1016.3 hPa | 0 mm | - | - | - |
| 1777407325 | 32.22° C | 100% | 1016.5 hPa | 0 mm | - | - | - |
| 1777406604 | 32.22° C | 100% | 1016.6 hPa | 0 mm | - | - | - |
| 1777405883 | 32.78° C | 100% | 1017 hPa | 0 mm | - | - | - |
| 1777405162 | 32.22° C | 100% | 1017 hPa | 0 mm | - | - | - |
* Rain latest hour (hover to see other rain measurements)
** Current wind speed in m/s (hover to see current wind gust speed)